This is the latest recevied weather packets stored in our database for station/object W5LND-10. If no packets are shown the sender has not sent any weather packets the latest 10 day(s).
| Time | Temp. | Humidity | Pressure | Rain* | Wind** | Luminosity | Snow |
|---|---|---|---|---|---|---|---|
| 1777856475 | 22.78° C | 40% | 1011.2 hPa | 0 mm | - | 32 W/m² | - |
| 1777856175 | 22.78° C | 40% | 1011.2 hPa | 0 mm | - | 39 W/m² | - |
| 1777855875 | 22.78° C | 40% | 1011.2 hPa | 0 mm | - | 40 W/m² | - |
| 1777855575 | 22.78° C | 40% | 1011.2 hPa | 0 mm | - | 51 W/m² | - |
| 1777855275 | 23.33° C | 40% | 1011.2 hPa | 0 mm | - | 60 W/m² | - |
| 1777854975 | 23.33° C | 40% | 1011.2 hPa | 0 mm | - | 65 W/m² | - |
| 1777854675 | 23.33° C | 40% | 1011.2 hPa | 0 mm | - | 70 W/m² | - |
| 1777854375 | 23.33° C | 40% | 1011.3 hPa | 0 mm | - | 76 W/m² | - |
| 1777854075 | 23.33° C | 39% | 1011.3 hPa | 0 mm | - | 88 W/m² | - |
| 1777853775 | 23.33° C | 39% | 1011.3 hPa | 0 mm | - | 109 W/m² | - |
| 1777853475 | 23.33° C | 40% | 1011.3 hPa | 0 mm | - | 125 W/m² | - |
| 1777853175 | 23.33° C | 39% | 1011.2 hPa | 0 mm | - | 149 W/m² | - |
| 1777852875 | 23.33° C | 39% | 1011.5 hPa | 0 mm | - | 141 W/m² | - |
| 1777852575 | 23.89° C | 39% | 1011.7 hPa | 0 mm | - | 125 W/m² | - |
| 1777852275 | 23.89° C | 40% | 1011.7 hPa | 0 mm | - | 141 W/m² | - |
| 1777851975 | 23.89° C | 39% | 1011.6 hPa | 0 mm | - | 146 W/m² | - |
| 1777851675 | 23.89° C | 39% | 1011.7 hPa | 0 mm | - | 167 W/m² | - |
| 1777851375 | 23.89° C | 39% | 1011.6 hPa | 0 mm | - | 209 W/m² | - |
| 1777851075 | 23.89° C | 39% | 1011.6 hPa | 0 mm | - | 202 W/m² | - |
| 1777850775 | 23.89° C | 38% | 1011.7 hPa | 0 mm | - | 185 W/m² | - |
| 1777850475 | 23.89° C | 38% | 1011.6 hPa | 0 mm | - | 185 W/m² | - |
| 1777850175 | 24.44° C | 38% | 1011.6 hPa | 0 mm | - | 193 W/m² | - |
| 1777849875 | 24.44° C | 38% | 1011.8 hPa | 0 mm | - | 202 W/m² | - |
| 1777849575 | 24.44° C | 37% | 1011.8 hPa | 0 mm | - | 236 W/m² | - |
| 1777849275 | 25° C | 37% | 1011.9 hPa | 0 mm | - | 237 W/m² | - |
* Rain latest hour (hover to see other rain measurements)
** Current wind speed in m/s (hover to see current wind gust speed)